OBJECT A

Satellite information

Favourite Embed

Satellite Type and Status

UNKNOWNIN ORBIT

Key statistics

Satellite OBJECT A at a glance.

Uptime

22

Days in orbit

Revolutions

≈ 14.3

Per day

Orbit

LEO

Low Earth Orbit

Inclination

11.0

Latest

Satellite identification and parameters

Extended collection of information and parameters for OBJECT A.

Object identification

Identified? True

Debris? False

Object name: OBJECT A

International designator: 2025-177A

Object number (NORAD): 65226

Object ID (CCSDS): 65226

Country: PEOPLES REPUBLIC OF CHINA (PRC)

Current information (Y/N): Y

RCS size: LARGE

Orbital parameters

Period: 100.763 minutes

Inclination: 11.0005 deg

SMA: 7172.885 km

Apoapsis: 797.471 km

Periapsis: 792.03 km

RAAN: 332.6046 deg

Eccentricy: 0.00037926

Argument of periapsis: 331.0749 deg

Mean anomaly: 28.9268 deg

Mean motion: 14.29097763 rev/day

Mean motion (dot): 0.00000819 rev/day2

B* drag term: 0.00015054156 1/REarth

Two-line elements (TLE)

Creation date: Sept. 8, 2025, 3:16 a.m.

Reference frame: TEME

Reference center: EARTH

Epoch: Sept. 7, 2025, 11:56 p.m. UTC

TLE line 0: 0 OBJECT A

TLE line 1: 1 65226U 25177A 25250.99782368 .00000819 00000-0 15054-3 0 9995

TLE line 2: 2 65226 11.0005 332.6046 0003793 331.0749 28.9268 14.29097763 3100

Live tracking on map

Real-time ground track for satellite OBJECT A.

In-orbit conjunctions

There are no conjunctions computed for OBJECT A, at the moment. Check back to stay up to date, as we update our databases every day.

Go to all conjunctions

Associated space launch

Satellite officially named for "space environment detection" purposes, exact details unknown.

OBJECT A was lifted into orbit during the mission ‘Long March 4C | Shiyan 28 B-02’, on board a Long March 4C space rocket.

The launch took place on Aug. 17, 2025, 8:55 a.m. from Launch Complex 3 (LC-3/LA-1).

For more information about the launch, click the button.

Launch to space Long March 4C | Shiyan 28 B-02
Long March 4C | Shiyan 28 B-02

Agency: N/A

Status: Launch Successful

Launch date: Aug. 17, 2025, 8:55 a.m. UTC

Rocket: Long March 4C

Launch pad: Launch Complex 3 (LC-3/LA-1)

Location: Xichang Satellite Launch Center, People's Republic of China

...

Latest news about this satellite

There are no fresh news available about this satellite. Check back as we update our databases every day.


Newsletter sign-up

Weekly statistics, charts and insights to help you stay on top of the space industry.